#�ϑ�����,���ϕ���,���ϕ���,�ő啗��,�ő啗����������,�ő�u�ԕ���,�ő�u�ԕ�����������
#(�N����),(m/s)   ,(16����),(m/s)   ,(16����)        ,(m/s)       ,(16����)            
2012/7/17 0:01,1.6,2,1.6,2,3.5,3
2012/7/17 0:02,1.7,2,1.7,2,3.3,3
2012/7/17 0:03,1.8,2,1.8,2,2.9,3
2012/7/17 0:04,1.9,2,1.9,2,2.9,3
2012/7/17 0:05,1.9,2,2,2,3,1
2012/7/17 0:06,1.9,2,1.9,2,2,4
2012/7/17 0:07,2,2,2,2,3.2,3
2012/7/17 0:08,2,2,2,2,3,2
2012/7/17 0:09,1.9,2,2,2,1.9,2
2012/7/17 0:10,1.9,2,1.9,2,2.7,3
2012/7/17 0:11,1.9,2,1.9,2,2.9,3
2012/7/17 0:12,1.9,2,1.9,2,3.3,3
2012/7/17 0:13,1.8,2,1.9,2,2.7,3
2012/7/17 0:14,1.8,2,1.8,2,2.9,2
2012/7/17 0:15,1.7,2,1.8,2,2.6,3
2012/7/17 0:16,1.7,2,1.7,2,2,2
2012/7/17 0:17,1.7,2,1.7,2,2.7,3
2012/7/17 0:18,1.6,2,1.7,2,2.5,3
2012/7/17 0:19,1.7,2,1.7,2,2.6,3
2012/7/17 0:20,1.7,3,1.7,2,2.6,3
2012/7/17 0:21,1.7,3,1.7,2,2.1,3
2012/7/17 0:22,1.6,3,1.6,2,3.2,3
2012/7/17 0:23,1.7,3,1.7,2,2.7,2
2012/7/17 0:24,1.7,2,1.7,2,2.1,3
2012/7/17 0:25,1.7,3,1.7,2,2.4,3
2012/7/17 0:26,1.8,2,1.8,2,2.9,3
2012/7/17 0:27,1.8,2,1.8,2,2.9,3
2012/7/17 0:28,1.8,2,1.8,2,2.5,2
2012/7/17 0:29,1.8,3,1.9,3,3,4
2012/7/17 0:30,1.9,2,1.9,3,2.9,3
2012/7/17 0:31,1.9,3,1.9,3,2.9,3
2012/7/17 0:32,1.8,3,1.9,3,2.9,2
2012/7/17 0:33,1.8,3,1.8,3,2.4,3
2012/7/17 0:34,1.7,3,1.8,3,1.9,4
2012/7/17 0:35,1.7,3,1.8,3,2.6,3
2012/7/17 0:36,1.8,3,1.8,3,2.6,3
2012/7/17 0:37,1.8,3,1.8,3,1.9,2
2012/7/17 0:38,1.7,3,1.8,3,2.5,3
2012/7/17 0:39,1.7,3,1.7,2,2.4,3
2012/7/17 0:40,1.7,3,1.7,2,2.9,3
2012/7/17 0:41,1.7,3,1.7,3,2.5,2
2012/7/17 0:42,1.7,3,1.7,3,2.5,2
2012/7/17 0:43,1.7,3,1.7,3,2.4,3
2012/7/17 0:44,1.7,3,1.7,3,2,3
2012/7/17 0:45,1.7,3,1.7,3,2.2,3
2012/7/17 0:46,1.7,3,1.7,3,2.6,3
2012/7/17 0:47,1.7,3,1.7,3,2.4,3
2012/7/17 0:48,1.7,3,1.7,3,2.5,3
2012/7/17 0:49,1.7,3,1.7,3,2.5,3
2012/7/17 0:50,1.7,3,1.7,3,3.1,3
2012/7/17 0:51,1.7,3,1.8,3,2.9,3
2012/7/17 0:52,1.7,3,1.8,3,3,3
2012/7/17 0:53,1.8,3,1.8,3,2.7,1
2012/7/17 0:54,1.8,3,1.8,3,3.5,2
2012/7/17 0:55,1.8,3,1.8,3,2.6,3
2012/7/17 0:56,2,3,2,3,4.8,3
2012/7/17 0:57,2.1,3,2.1,3,4.5,3
2012/7/17 0:58,2.2,3,2.2,3,3.2,3
2012/7/17 0:59,2.2,3,2.2,3,3.1,3
2012/7/17 1:00,2.2,3,2.3,3,2.9,3
2012/7/17 1:01,2.2,3,2.2,3,3.1,4
2012/7/17 1:02,2.2,3,2.2,3,2.5,3
2012/7/17 1:03,2.2,3,2.2,3,2.7,3
2012/7/17 1:04,2.2,3,2.2,3,3.1,3
2012/7/17 1:05,2.2,3,2.2,3,2.2,3
2012/7/17 1:06,2,3,2.2,3,1.4,16
2012/7/17 1:07,1.8,3,1.9,3,2.5,2
2012/7/17 1:08,1.7,3,1.8,3,2.6,3
2012/7/17 1:09,1.6,2,1.7,3,2.1,3
2012/7/17 1:10,1.5,2,1.6,3,1.5,2
2012/7/17 1:11,1.5,2,1.5,3,2.7,3
2012/7/17 1:12,1.6,2,1.6,3,2.4,4
2012/7/17 1:13,1.5,2,1.6,3,2.7,4
2012/7/17 1:14,1.5,2,1.6,3,2.9,3
2012/7/17 1:15,1.5,2,1.5,3,2.1,3
2012/7/17 1:16,1.6,3,1.6,3,2.5,3
2012/7/17 1:17,1.7,3,1.7,3,2.7,4
2012/7/17 1:18,1.7,3,1.7,3,1.9,2
2012/7/17 1:19,1.7,3,1.7,3,2.2,3
2012/7/17 1:20,1.7,3,1.7,3,1.5,3
2012/7/17 1:21,1.6,3,1.7,3,1.8,3
2012/7/17 1:22,1.6,3,1.6,3,1.5,3
2012/7/17 1:23,1.5,3,1.6,3,2.2,3
2012/7/17 1:24,1.4,3,1.5,3,1.8,3
2012/7/17 1:25,1.4,3,1.4,3,2.5,4
2012/7/17 1:26,1.4,3,1.4,3,2.5,4
2012/7/17 1:27,1.2,3,1.4,3,1,1
2012/7/17 1:28,1.2,3,1.2,3,1.8,1
2012/7/17 1:29,1.2,3,1.2,3,1.6,2
2012/7/17 1:30,1.2,3,1.2,3,2.1,3
2012/7/17 1:31,1.2,3,1.2,3,1.5,3
2012/7/17 1:32,1.2,3,1.2,3,1.6,3
2012/7/17 1:33,1.2,3,1.2,3,2.2,3
2012/7/17 1:34,1.3,2,1.3,3,2.1,3
2012/7/17 1:35,1.2,2,1.3,3,2.7,2
2012/7/17 1:36,1.3,2,1.3,3,3,3
2012/7/17 1:37,1.4,2,1.4,2,2.4,2
2012/7/17 1:38,1.5,2,1.5,2,2.6,3
2012/7/17 1:39,1.5,2,1.5,2,3.1,3
2012/7/17 1:40,1.6,2,1.6,2,2.6,4
2012/7/17 1:41,1.7,2,1.7,2,2.4,3
2012/7/17 1:42,1.8,3,1.8,2,3.2,4
2012/7/17 1:43,1.9,3,1.9,3,2.4,3
2012/7/17 1:44,1.9,3,1.9,3,2.4,3
2012/7/17 1:45,1.8,3,1.9,3,2,3
2012/7/17 1:46,1.8,3,1.8,3,3,4
2012/7/17 1:47,1.8,3,1.8,3,2.7,3
2012/7/17 1:48,1.9,3,1.9,3,3.3,2
2012/7/17 1:49,1.9,3,1.9,3,3.8,3
2012/7/17 1:50,2,3,2,3,3.9,3
2012/7/17 1:51,2,3,2,3,3.8,2
2012/7/17 1:52,2,3,2,3,2.9,4
2012/7/17 1:53,2,2,2,3,2.7,2
2012/7/17 1:54,2,2,2,3,3.2,3
2012/7/17 1:55,2.1,2,2.1,2,2.7,3
2012/7/17 1:56,2.1,3,2.2,2,2.4,3
2012/7/17 1:57,2.1,3,2.1,2,2.2,3
2012/7/17 1:58,2.1,3,2.1,2,2.7,3
2012/7/17 1:59,2.1,3,2.1,2,3.9,3
2012/7/17 2:00,2.1,3,2.1,2,3.8,3
2012/7/17 2:01,2.1,3,2.1,2,2.6,3
2012/7/17 2:02,2,3,2.1,2,2.9,5
2012/7/17 2:03,2,3,2,2,3,3
2012/7/17 2:04,2,3,2,2,2.1,4
2012/7/17 2:05,2,3,2,2,4.4,4
2012/7/17 2:06,2,3,2,2,4.1,4
2012/7/17 2:07,1.9,3,2,3,2.2,3
2012/7/17 2:08,1.9,3,1.9,3,2.4,3
2012/7/17 2:09,1.8,3,1.9,3,1.9,3
2012/7/17 2:10,1.7,3,1.8,3,3,3
2012/7/17 2:11,1.7,3,1.7,3,2.9,3
2012/7/17 2:12,1.7,3,1.7,3,2.6,3
2012/7/17 2:13,1.7,3,1.7,3,2.6,3
2012/7/17 2:14,1.7,3,1.7,3,2.4,3
2012/7/17 2:15,1.6,3,1.7,3,2.2,2
2012/7/17 2:16,1.5,3,1.6,3,1.9,4
2012/7/17 2:17,1.5,3,1.5,3,1.9,1
2012/7/17 2:18,1.5,3,1.5,3,2.6,4
2012/7/17 2:19,1.5,3,1.5,3,2.6,4
2012/7/17 2:20,1.4,3,1.5,3,2,3
2012/7/17 2:21,1.4,3,1.5,3,2,3
2012/7/17 2:22,1.4,3,1.4,3,2.2,3
2012/7/17 2:23,1.3,3,1.4,3,2.1,4
2012/7/17 2:24,1.3,3,1.3,3,1.8,2
2012/7/17 2:25,1.3,2,1.3,3,2.1,2
2012/7/17 2:26,1.3,2,1.3,3,2.5,3
2012/7/17 2:27,1.4,2,1.4,3,2.2,3
2012/7/17 2:28,1.3,2,1.4,3,1.9,1
2012/7/17 2:29,1.3,2,1.3,3,2.4,1
2012/7/17 2:30,1.3,2,1.3,3,2.5,16
2012/7/17 2:31,1.3,2,1.3,3,2.5,2
2012/7/17 2:32,1.3,2,1.3,3,3.5,2
2012/7/17 2:33,1.4,2,1.4,2,2.1,3
2012/7/17 2:34,1.4,2,1.4,2,2.2,2
2012/7/17 2:35,1.5,2,1.5,2,2.2,3
2012/7/17 2:36,1.4,2,1.5,2,2.5,2
2012/7/17 2:37,1.5,2,1.5,2,2.5,3
2012/7/17 2:38,1.5,2,1.5,2,2.6,3
2012/7/17 2:39,1.6,3,1.6,3,3.6,3
2012/7/17 2:40,1.7,3,1.7,3,2.9,4
2012/7/17 2:41,1.7,3,1.7,3,2.6,5
2012/7/17 2:42,1.6,3,1.7,3,1.6,3
2012/7/17 2:43,1.5,3,1.5,3,2,4
2012/7/17 2:44,1.5,3,1.5,3,2,2
2012/7/17 2:45,1.5,3,1.5,3,2,2
2012/7/17 2:46,1.4,3,1.5,3,1.8,2
2012/7/17 2:47,1.4,3,1.4,3,1.9,3
2012/7/17 2:48,1.5,3,1.5,3,2.2,2
2012/7/17 2:49,1.4,3,1.4,3,2.2,3
2012/7/17 2:50,1.4,3,1.4,3,2.4,3
2012/7/17 2:51,1.4,3,1.4,3,2.4,3
2012/7/17 2:52,1.5,3,1.5,3,2.2,3
2012/7/17 2:53,1.5,3,1.5,3,1.5,2
2012/7/17 2:54,1.5,3,1.5,3,2.9,3
2012/7/17 2:55,1.5,3,1.5,3,1.5,3
2012/7/17 2:56,1.5,3,1.5,3,1.4,2
2012/7/17 2:57,1.5,3,1.5,3,1.5,3
2012/7/17 2:58,1.4,3,1.5,3,2,2
2012/7/17 2:59,1.4,2,1.4,3,2.6,2
2012/7/17 3:00,1.3,2,1.4,3,2,4
2012/7/17 3:01,1.3,2,1.3,3,2.2,3
2012/7/17 3:02,1.3,2,1.3,3,2.5,4
2012/7/17 3:03,1.4,3,1.4,3,2.4,3
2012/7/17 3:04,1.3,3,1.4,3,1.1,4
2012/7/17 3:05,1.3,3,1.3,3,2,3
2012/7/17 3:06,1.3,3,1.3,3,1.6,5
2012/7/17 3:07,1.3,3,1.3,3,1.6,4
2012/7/17 3:08,1.3,3,1.3,2,1.1,3
2012/7/17 3:09,1.2,3,1.3,2,1.3,2
2012/7/17 3:10,1.2,3,1.2,2,1.5,3
2012/7/17 3:11,1.1,3,1.2,2,1.3,3
2012/7/17 3:12,1,3,1.1,2,1.9,2
2012/7/17 3:13,1,3,1,3,2.9,2
2012/7/17 3:14,1,3,1,3,2.2,2
2012/7/17 3:15,1,3,1,3,2.7,5
2012/7/17 3:16,1.1,3,1.1,3,2.9,5
2012/7/17 3:17,1.2,3,1.2,3,2.1,5
2012/7/17 3:18,1.2,3,1.2,3,2,6
2012/7/17 3:19,1.2,3,1.2,3,1.3,5
2012/7/17 3:20,1.2,4,1.2,3,0.8,5
2012/7/17 3:21,1.2,4,1.2,3,0.9,4
2012/7/17 3:22,1.2,4,1.2,3,1.6,5
2012/7/17 3:23,1.2,4,1.2,3,1.6,5
2012/7/17 3:24,1.2,4,1.2,3,1.4,2
2012/7/17 3:25,1.1,4,1.2,3,1.1,3
2012/7/17 3:26,1,4,1.1,3,2,5
2012/7/17 3:27,1,4,1,3,2.2,4
2012/7/17 3:28,1.1,4,1.1,3,2.2,5
2012/7/17 3:29,1.2,4,1.2,3,2.7,6
2012/7/17 3:30,1.4,4,1.4,4,3.5,6
2012/7/17 3:31,1.5,5,1.5,5,2.7,5
2012/7/17 3:32,1.5,4,1.5,5,1.9,5
2012/7/17 3:33,1.5,4,1.5,5,1.8,3
2012/7/17 3:34,1.5,4,1.5,5,1.3,3
2012/7/17 3:35,1.6,4,1.6,4,1.9,2
2012/7/17 3:36,1.5,4,1.5,4,1.9,2
2012/7/17 3:37,1.5,4,1.5,4,2.1,5
2012/7/17 3:38,1.5,4,1.5,4,3.7,5
2012/7/17 3:39,1.6,4,1.6,4,3.2,5
2012/7/17 3:40,1.6,4,1.6,4,2.9,5
2012/7/17 3:41,1.6,4,1.6,4,2.6,5
2012/7/17 3:42,1.6,4,1.6,4,1.9,4
2012/7/17 3:43,1.5,4,1.6,4,1.6,4
2012/7/17 3:44,1.6,4,1.6,4,1.3,2
2012/7/17 3:45,1.5,4,1.6,4,1,4
2012/7/17 3:46,1.5,4,1.5,4,1.4,3
2012/7/17 3:47,1.5,4,1.5,4,1.4,4
2012/7/17 3:48,1.3,4,1.4,4,1.4,4
2012/7/17 3:49,1.2,4,1.3,4,1.3,3
2012/7/17 3:50,1.1,4,1.1,4,1.5,4
2012/7/17 3:51,1,4,1,4,1.5,6
2012/7/17 3:52,0.9,4,1,4,1.3,6
2012/7/17 3:53,0.9,4,0.9,4,1.6,6
2012/7/17 3:54,0.9,5,0.9,4,1.4,6
2012/7/17 3:55,1,5,1,4,2,3
2012/7/17 3:56,1,5,1,4,2.6,3
2012/7/17 3:57,1,5,1,4,1.6,4
2012/7/17 3:58,1,5,1,4,1,7
2012/7/17 3:59,1.1,5,1.1,4,1.8,6
2012/7/17 4:00,1.1,6,1.1,5,1.8,7
2012/7/17 4:01,1.2,6,1.2,6,2.6,6
2012/7/17 4:02,1.2,6,1.2,6,2.6,6
2012/7/17 4:03,1.3,6,1.3,6,2.2,6
2012/7/17 4:04,1.4,6,1.4,6,2.1,6
2012/7/17 4:05,1.3,6,1.3,6,1.8,6
2012/7/17 4:06,1.3,6,1.3,6,1.1,6
2012/7/17 4:07,1.3,6,1.3,6,1.5,4
2012/7/17 4:08,1.3,5,1.3,6,1.5,3
2012/7/17 4:09,1.3,5,1.3,6,2,4
2012/7/17 4:10,1.3,5,1.4,6,1.8,5
2012/7/17 4:11,1.3,5,1.3,6,1.8,5
2012/7/17 4:12,1.3,5,1.3,6,1.9,5
2012/7/17 4:13,1.2,5,1.3,6,1.6,5
2012/7/17 4:14,1.2,4,1.2,5,1.8,4
2012/7/17 4:15,1.2,4,1.2,5,2.6,6
2012/7/17 4:16,1.3,4,1.3,5,2.5,4
2012/7/17 4:17,1.3,4,1.3,5,1.5,4
2012/7/17 4:18,1.3,4,1.3,5,1.3,4
2012/7/17 4:19,1.2,4,1.2,5,1.3,5
2012/7/17 4:20,1.1,4,1.2,5,0.9,5
2012/7/17 4:21,1.1,5,1.1,5,1.3,4
2012/7/17 4:22,1,5,1.1,5,1.8,6
2012/7/17 4:23,1.1,5,1.1,4,1.8,4
2012/7/17 4:24,1.1,5,1.1,4,1.8,4
2012/7/17 4:25,1.1,5,1.1,4,2.2,4
2012/7/17 4:26,1.1,4,1.1,4,1.8,3
2012/7/17 4:27,1.1,4,1.1,4,1.9,4
2012/7/17 4:28,1.2,5,1.2,4,2.7,5
2012/7/17 4:29,1.3,4,1.3,5,2.5,5
2012/7/17 4:30,1.4,4,1.4,4,1.6,3
2012/7/17 4:31,1.4,4,1.4,4,2.2,4
2012/7/17 4:32,1.4,4,1.4,4,1.8,3
2012/7/17 4:33,1.4,4,1.4,4,2,4
2012/7/17 4:34,1.4,4,1.4,4,1.4,5
2012/7/17 4:35,1.3,4,1.4,4,1.5,3
2012/7/17 4:36,1.3,4,1.3,4,1.5,3
2012/7/17 4:37,1.2,4,1.3,4,1.5,1
2012/7/17 4:38,1.1,3,1.2,4,1.6,2
2012/7/17 4:39,1.1,3,1.1,4,2.1,3
2012/7/17 4:40,1.1,3,1.1,4,1.6,1
2012/7/17 4:41,1.1,3,1.1,4,2,3
2012/7/17 4:42,1.1,3,1.1,4,1.6,2
2012/7/17 4:43,1.1,3,1.1,4,2,4
2012/7/17 4:44,1.2,2,1.2,4,1.9,2
2012/7/17 4:45,1.2,2,1.2,4,2.2,3
2012/7/17 4:46,1.3,2,1.3,4,2.2,3
2012/7/17 4:47,1.3,2,1.3,3,1.9,3
2012/7/17 4:48,1.4,3,1.4,3,2,3
2012/7/17 4:49,1.3,2,1.4,3,1.8,2
2012/7/17 4:50,1.3,2,1.3,3,1.8,16
2012/7/17 4:51,1.3,2,1.3,3,1.6,1
2012/7/17 4:52,1.2,2,1.3,3,1.1,1
2012/7/17 4:53,1.2,2,1.2,3,2.1,3
2012/7/17 4:54,1.2,2,1.2,3,1.8,3
2012/7/17 4:55,1.1,2,1.2,3,2.1,3
2012/7/17 4:56,1.1,2,1.1,3,1.3,3
2012/7/17 4:57,1,2,1.1,3,1.4,4
2012/7/17 4:58,1,2,1,3,1.8,1
2012/7/17 4:59,1,2,1,2,1.8,2
2012/7/17 5:00,1,2,1,2,1.9,2
2012/7/17 5:01,1,2,1,2,1.5,3
2012/7/17 5:02,1.1,2,1.1,2,1.4,4
2012/7/17 5:03,1.1,2,1.1,2,2.4,2
2012/7/17 5:04,1.1,2,1.1,2,2.4,3
2012/7/17 5:05,1.1,2,1.1,2,1.8,2
2012/7/17 5:06,1.1,2,1.1,2,1.4,2
2012/7/17 5:07,1.1,2,1.1,2,2.1,3
2012/7/17 5:08,1.2,2,1.2,2,2,4
2012/7/17 5:09,1.1,2,1.1,2,1.4,2
2012/7/17 5:10,1.1,2,1.1,2,1.1,3
2012/7/17 5:11,1.1,2,1.1,2,1.4,3
2012/7/17 5:12,1.1,2,1.1,2,1.4,3
2012/7/17 5:13,1.1,2,1.1,2,1.6,3
2012/7/17 5:14,1,2,1.1,2,1.4,3
2012/7/17 5:15,1,2,1,2,1.8,2
2012/7/17 5:16,1.1,2,1.1,2,2.7,3
2012/7/17 5:17,1.2,2,1.2,2,2.2,4
2012/7/17 5:18,1.2,2,1.2,2,2.2,2
2012/7/17 5:19,1.3,2,1.3,2,2.4,2
2012/7/17 5:20,1.4,2,1.4,2,3,3
2012/7/17 5:21,1.5,2,1.5,2,2.9,3
2012/7/17 5:22,1.6,3,1.6,2,2.2,2
2012/7/17 5:23,1.6,2,1.6,2,1.6,2
2012/7/17 5:24,1.7,3,1.7,3,2.7,3
2012/7/17 5:25,1.8,3,1.8,3,2.7,3
2012/7/17 5:26,1.7,3,1.8,3,3,3
2012/7/17 5:27,1.8,3,1.8,3,2.9,3
2012/7/17 5:28,1.7,3,1.8,3,2.5,3
2012/7/17 5:29,1.8,3,1.8,3,3.1,3
2012/7/17 5:30,1.8,3,1.8,3,3,3
2012/7/17 5:31,1.7,3,1.8,3,1.6,2
2012/7/17 5:32,1.6,2,1.7,3,1.6,2
2012/7/17 5:33,1.7,3,1.7,3,2.6,3
2012/7/17 5:34,1.7,2,1.7,3,2.4,3
2012/7/17 5:35,1.6,2,1.7,3,2,2
2012/7/17 5:36,1.5,2,1.6,3,3,2
2012/7/17 5:37,1.6,2,1.6,3,2.7,3
2012/7/17 5:38,1.6,2,1.6,3,2.2,3
2012/7/17 5:39,1.5,2,1.6,3,2.2,3
2012/7/17 5:40,1.5,2,1.5,3,2.6,2
2012/7/17 5:41,1.5,2,1.5,3,2,3
2012/7/17 5:42,1.6,2,1.6,2,1.6,3
2012/7/17 5:43,1.5,2,1.6,3,2,2
2012/7/17 5:44,1.5,2,1.5,2,3,4
2012/7/17 5:45,1.6,3,1.6,2,3.8,4
2012/7/17 5:46,1.8,3,1.8,3,3.6,3
2012/7/17 5:47,1.7,3,1.8,3,2.6,3
2012/7/17 5:48,1.8,3,1.8,3,3,3
2012/7/17 5:49,1.8,3,1.8,3,2.4,4
2012/7/17 5:50,1.7,3,1.8,3,1.4,3
2012/7/17 5:51,1.7,3,1.8,3,2.4,3
2012/7/17 5:52,1.8,3,1.8,3,2,3
2012/7/17 5:53,1.8,3,1.8,3,2.6,3
2012/7/17 5:54,1.8,3,1.8,3,2.7,5
2012/7/17 5:55,1.7,3,1.8,3,1.3,2
2012/7/17 5:56,1.6,3,1.7,3,2.5,3
2012/7/17 5:57,1.5,3,1.6,3,2,3
2012/7/17 5:58,1.4,3,1.5,3,2.2,3
2012/7/17 5:59,1.4,3,1.4,3,1.8,3
2012/7/17 6:00,1.5,3,1.5,3,2.2,3
2012/7/17 6:01,1.5,3,1.5,3,2.5,3
2012/7/17 6:02,1.5,3,1.5,3,2.7,4
2012/7/17 6:03,1.4,3,1.5,3,1.8,4
2012/7/17 6:04,1.4,3,1.4,3,1.8,5
2012/7/17 6:05,1.4,4,1.4,3,1.9,5
2012/7/17 6:06,1.4,4,1.4,3,2.5,3
2012/7/17 6:07,1.4,3,1.4,3,2.2,3
2012/7/17 6:08,1.5,4,1.5,3,3.1,5
2012/7/17 6:09,1.5,4,1.5,3,2.7,5
2012/7/17 6:10,1.5,4,1.5,3,1.8,4
2012/7/17 6:11,1.5,4,1.5,3,2,4
2012/7/17 6:12,1.4,4,1.4,3,1.9,3
2012/7/17 6:13,1.4,4,1.4,4,2.7,3
2012/7/17 6:14,1.4,3,1.5,4,3,4
2012/7/17 6:15,1.5,3,1.5,4,2.6,4
2012/7/17 6:16,1.5,3,1.5,4,2.4,5
2012/7/17 6:17,1.4,3,1.4,4,2.5,3
2012/7/17 6:18,1.4,3,1.5,4,3.6,3
2012/7/17 6:19,1.4,3,1.4,4,2.5,4
2012/7/17 6:20,1.5,3,1.5,4,2.9,5
2012/7/17 6:21,1.4,3,1.4,4,1.4,3
2012/7/17 6:22,1.5,3,1.5,4,2.5,5
2012/7/17 6:23,1.5,3,1.6,3,2.1,4
2012/7/17 6:24,1.5,4,1.5,3,1.4,2
2012/7/17 6:25,1.4,4,1.5,3,1,3
2012/7/17 6:26,1.4,3,1.4,3,1.4,2
2012/7/17 6:27,1.4,3,1.4,3,3,3
2012/7/17 6:28,1.4,3,1.4,3,2.7,3
2012/7/17 6:29,1.4,3,1.4,3,1.9,3
2012/7/17 6:30,1.4,3,1.4,3,1.8,3
2012/7/17 6:31,1.4,3,1.4,3,1.6,3
2012/7/17 6:32,1.3,3,1.4,3,1.3,3
2012/7/17 6:33,1.2,3,1.3,3,1.1,4
2012/7/17 6:34,1.1,3,1.2,4,0.4,3
2012/7/17 6:35,1.1,3,1.1,4,0.9,2
2012/7/17 6:36,1.1,3,1.1,3,1,16
2012/7/17 6:37,0.9,3,1.1,3,1.3,1
2012/7/17 6:38,0.9,3,0.9,3,2.5,5
2012/7/17 6:39,1,3,1,3,2.2,4
2012/7/17 6:40,0.9,3,1,3,1.5,3
2012/7/17 6:41,0.8,3,0.9,3,1.6,4
2012/7/17 6:42,0.9,3,0.9,3,1.8,5
2012/7/17 6:43,0.9,3,0.9,3,1.6,5
2012/7/17 6:44,1,3,1,3,1.5,2
2012/7/17 6:45,1.1,3,1.1,3,1.3,1
2012/7/17 6:46,1,3,1,3,0.9,1
2012/7/17 6:47,1,3,1,3,2,1
2012/7/17 6:48,1,3,1.1,3,1.5,16
2012/7/17 6:49,0.9,2,0.9,3,1.5,1
2012/7/17 6:50,1,2,1,3,2.7,16
2012/7/17 6:51,1,1,1,3,2.9,16
2012/7/17 6:52,1,1,1,3,2.1,15
2012/7/17 6:53,1,16,1,3,1.5,13
2012/7/17 6:54,0.9,16,1,3,0.8,13
2012/7/17 6:55,1,16,1,3,2.1,16
2012/7/17 6:56,1,16,1,3,1.5,16
2012/7/17 6:57,1,16,1,3,0.9,2
2012/7/17 6:58,1,16,1,2,1,1
2012/7/17 6:59,1,16,1,2,3.2,1
2012/7/17 7:00,1,16,1.1,16,2.2,1
2012/7/17 7:01,1,1,1,16,2,1
2012/7/17 7:02,1,1,1,16,1.9,16
2012/7/17 7:03,1,1,1,16,1.1,4
2012/7/17 7:04,1,2,1,16,1.3,5
2012/7/17 7:05,0.9,2,1,16,1,3
2012/7/17 7:06,0.9,2,0.9,16,1.1,5
2012/7/17 7:07,0.9,3,0.9,16,1,7
2012/7/17 7:08,0.9,3,0.9,16,0.9,4
2012/7/17 7:09,0.8,3,0.9,16,0.9,3
2012/7/17 7:10,0.7,4,0.8,16,1.3,5
2012/7/17 7:11,0.7,4,0.7,1,1.8,5
2012/7/17 7:12,0.8,5,0.8,1,2.1,5
2012/7/17 7:13,0.8,5,0.8,2,1.8,6
2012/7/17 7:14,0.9,5,0.9,2,2.2,6
2012/7/17 7:15,1,5,1,5,2.2,6
2012/7/17 7:16,1,5,1,5,1.4,6
2012/7/17 7:17,1.1,5,1.1,5,1.4,5
2012/7/17 7:18,1.1,5,1.1,5,1.3,4
2012/7/17 7:19,1.2,5,1.2,5,1.5,3
2012/7/17 7:20,1.2,5,1.2,5,1,3
2012/7/17 7:21,1.1,5,1.2,5,1,2
2012/7/17 7:22,1,4,1.1,5,1,2
2012/7/17 7:23,0.9,4,1,5,0.6,3
2012/7/17 7:24,0.9,3,0.9,5,1.4,3
2012/7/17 7:25,0.8,3,0.8,5,1.3,2
2012/7/17 7:26,0.8,3,0.8,5,1.5,2
2012/7/17 7:27,0.8,3,0.8,5,1.5,3
2012/7/17 7:28,0.8,2,0.8,5,1.1,3
2012/7/17 7:29,0.8,2,0.8,5,1.1,3
2012/7/17 7:30,0.8,2,0.8,5,1.4,2
2012/7/17 7:31,0.8,2,0.8,4,0.9,2
2012/7/17 7:32,0.9,2,0.9,4,1.8,2
2012/7/17 7:33,1,2,1,2,2,3
2012/7/17 7:34,1.1,2,1.1,2,2,3
2012/7/17 7:35,1.1,3,1.1,2,2.4,3
2012/7/17 7:36,1.2,3,1.2,3,1.9,4
2012/7/17 7:37,1.2,3,1.2,3,2.4,5
2012/7/17 7:38,1.3,3,1.3,3,2.6,5
2012/7/17 7:39,1.5,4,1.5,3,2.6,5
2012/7/17 7:40,1.6,4,1.6,4,3,5
2012/7/17 7:41,1.7,4,1.7,4,2.9,5
2012/7/17 7:42,1.8,4,1.8,4,3.1,5
2012/7/17 7:43,1.9,5,1.9,4,2.9,5
2012/7/17 7:44,2,5,2,5,3.2,6
2012/7/17 7:45,2,5,2.1,5,2.9,4
2012/7/17 7:46,2,5,2,5,1.8,6
2012/7/17 7:47,2,5,2,5,2.1,3
2012/7/17 7:48,1.9,5,2,5,2.5,4
2012/7/17 7:49,1.8,5,1.9,5,1.6,5
2012/7/17 7:50,1.7,5,1.8,5,1.9,3
2012/7/17 7:51,1.7,5,1.7,5,2,4
2012/7/17 7:52,1.5,5,1.7,5,1.8,2
2012/7/17 7:53,1.4,4,1.5,5,1.8,3
2012/7/17 7:54,1.3,4,1.4,5,2.1,3
2012/7/17 7:55,1.3,4,1.3,5,2.9,4
2012/7/17 7:56,1.4,4,1.4,5,2.4,5
2012/7/17 7:57,1.4,4,1.4,5,2.2,4
2012/7/17 7:58,1.5,4,1.5,5,2.4,3
2012/7/17 7:59,1.6,4,1.6,5,2.9,3
2012/7/17 8:00,1.7,4,1.7,5,3.2,3
2012/7/17 8:01,1.7,4,1.7,5,2.9,3
2012/7/17 8:02,1.7,4,1.7,4,2.6,5
2012/7/17 8:03,1.8,4,1.8,4,2.6,3
2012/7/17 8:04,1.9,4,1.9,4,3.1,5
2012/7/17 8:05,1.9,4,1.9,4,3.9,4
2012/7/17 8:06,2,4,2,4,4.3,5
2012/7/17 8:07,2.1,4,2.1,4,3.8,5
2012/7/17 8:08,2.3,4,2.3,4,4.1,5
2012/7/17 8:09,2.3,4,2.3,4,3.8,4
2012/7/17 8:10,2.4,4,2.4,4,3.1,5
2012/7/17 8:11,2.4,4,2.4,4,3,6
2012/7/17 8:12,2.4,4,2.4,4,2.9,4
2012/7/17 8:13,2.4,4,2.4,4,3.2,4
2012/7/17 8:14,2.5,5,2.5,5,3.3,5
2012/7/17 8:15,2.5,5,2.5,5,3.8,5
2012/7/17 8:16,2.5,5,2.5,5,3.3,5
2012/7/17 8:17,2.5,5,2.5,5,3.5,5
2012/7/17 8:18,2.4,5,2.5,5,3,5
2012/7/17 8:19,2.4,5,2.4,5,3.5,5
2012/7/17 8:20,2.3,5,2.4,5,3.2,5
2012/7/17 8:21,2.2,5,2.3,5,2.7,4
2012/7/17 8:22,2.2,5,2.2,5,3.3,5
2012/7/17 8:23,2.3,5,2.3,5,3.2,4
2012/7/17 8:24,2.3,5,2.3,5,3,5
2012/7/17 8:25,2.2,5,2.3,5,3.2,4
2012/7/17 8:26,2.1,5,2.2,5,2.9,4
2012/7/17 8:27,1.9,5,2.1,5,1.8,6
2012/7/17 8:28,2,5,2,5,4.3,6
2012/7/17 8:29,2,5,2,5,3.1,6
2012/7/17 8:30,2.1,5,2.1,5,3.9,6
2012/7/17 8:31,2.1,5,2.1,5,4.1,3
2012/7/17 8:32,2.2,5,2.2,5,4.2,4
2012/7/17 8:33,2.2,5,2.2,5,3.3,4
2012/7/17 8:34,2.1,5,2.2,5,2.7,2
2012/7/17 8:35,2.1,5,2.2,5,3,5
2012/7/17 8:36,2.2,5,2.2,5,4.3,5
2012/7/17 8:37,2.4,5,2.4,5,4.4,5
2012/7/17 8:38,2.4,5,2.4,5,3.7,4
2012/7/17 8:39,2.4,5,2.4,5,3.6,4
2012/7/17 8:40,2.3,4,2.4,5,3,5
2012/7/17 8:41,2.3,4,2.3,5,4.8,6
2012/7/17 8:42,2.3,5,2.4,5,4.7,5
2012/7/17 8:43,2.3,5,2.3,5,3,5
2012/7/17 8:44,2.3,5,2.3,5,2.1,3
2012/7/17 8:45,2.3,4,2.3,5,2.7,3
2012/7/17 8:46,2.2,5,2.3,5,3.6,6
2012/7/17 8:47,2.3,5,2.3,5,3.9,6
2012/7/17 8:48,2.2,5,2.3,5,3.1,6
2012/7/17 8:49,2.2,5,2.2,5,3.9,5
2012/7/17 8:50,2.3,5,2.3,5,3.6,6
2012/7/17 8:51,2.3,5,2.3,5,3.6,6
2012/7/17 8:52,2.3,5,2.3,5,3.9,4
2012/7/17 8:53,2.4,5,2.4,5,4.2,5
2012/7/17 8:54,2.5,5,2.5,5,2.6,5
2012/7/17 8:55,2.6,5,2.6,5,4.4,5
2012/7/17 8:56,2.6,5,2.6,5,3.6,4
2012/7/17 8:57,2.5,5,2.6,5,3.9,4
2012/7/17 8:58,2.6,5,2.6,5,4.4,3
2012/7/17 8:59,2.6,5,2.6,5,3.7,4
2012/7/17 9:00,2.5,5,2.6,5,3.2,5
2012/7/17 9:01,2.5,4,2.5,5,3.6,5
2012/7/17 9:02,2.5,5,2.5,5,4.3,4
2012/7/17 9:03,2.6,5,2.6,5,4.4,5
2012/7/17 9:04,2.6,4,2.6,5,3.5,4
2012/7/17 9:05,2.5,4,2.6,5,3.7,5
2012/7/17 9:06,2.6,4,2.6,5,4.9,5
2012/7/17 9:07,2.8,4,2.8,4,5.2,5
2012/7/17 9:08,2.8,5,2.8,4,3.6,6
2012/7/17 9:09,2.9,5,2.9,5,4.9,4
2012/7/17 9:10,3,5,3,5,5.1,5
2012/7/17 9:11,2.9,5,3,5,2.4,5
2012/7/17 9:12,2.8,5,2.9,5,4.1,3
2012/7/17 9:13,2.8,4,2.8,5,4.4,3
2012/7/17 9:14,2.7,4,2.8,5,3.7,5
2012/7/17 9:15,2.8,4,2.8,5,5,4
2012/7/17 9:16,2.6,4,2.8,5,3.1,5
2012/7/17 9:17,2.5,4,2.6,5,3.2,4
2012/7/17 9:18,2.5,4,2.5,5,4.3,5
2012/7/17 9:19,2.6,4,2.6,5,5.7,6
2012/7/17 9:20,2.7,5,2.7,5,5.8,6
2012/7/17 9:21,2.9,5,2.9,5,5.5,6
2012/7/17 9:22,3.1,5,3.1,5,5.6,4
2012/7/17 9:23,3.2,5,3.2,5,4.7,3
2012/7/17 9:24,3.4,5,3.4,5,5,4
2012/7/17 9:25,3.3,5,3.3,5,4.3,3
2012/7/17 9:26,3.4,5,3.4,5,4.7,5
2012/7/17 9:27,3.4,5,3.4,5,3.8,5
2012/7/17 9:28,3.4,5,3.5,5,3.8,4
2012/7/17 9:29,3.2,4,3.4,5,3,2
2012/7/17 9:30,2.9,4,3.1,5,2,5
2012/7/17 9:31,2.6,4,2.9,5,2.1,4
2012/7/17 9:32,2.3,4,2.6,5,1.4,3
2012/7/17 9:33,2,4,2.3,5,1.4,2
2012/7/17 9:34,1.8,4,2,5,2.7,4
2012/7/17 9:35,1.7,4,1.8,5,4.2,6
2012/7/17 9:36,1.7,4,1.8,5,4.7,5
2012/7/17 9:37,1.7,4,1.8,5,3.8,5
2012/7/17 9:38,1.7,4,1.7,5,3,4
2012/7/17 9:39,1.7,4,1.7,4,2.5,2
2012/7/17 9:40,1.7,4,1.7,4,2.5,5
2012/7/17 9:41,1.8,5,1.8,4,2.4,6
2012/7/17 9:42,1.9,5,1.9,4,3.2,5
2012/7/17 9:43,2.1,5,2.1,5,4.9,5
2012/7/17 9:44,2.2,5,2.2,5,4.2,5
2012/7/17 9:45,2.3,5,2.3,5,3.5,6
2012/7/17 9:46,2.2,5,2.3,5,3,6
2012/7/17 9:47,2.2,5,2.2,5,2.7,4
2012/7/17 9:48,2.2,5,2.2,5,3.3,4
2012/7/17 9:49,2.1,5,2.2,5,2.9,6
2012/7/17 9:50,2.1,5,2.1,5,3.7,6
2012/7/17 9:51,2.3,5,2.3,5,4.2,6
2012/7/17 9:52,2.2,5,2.3,5,2.9,6
2012/7/17 9:53,2,6,2.2,5,3,8
2012/7/17 9:54,2,6,2,5,3.2,7
2012/7/17 9:55,1.8,6,2,5,1.9,5
2012/7/17 9:56,1.7,6,1.8,5,2.4,7
2012/7/17 9:57,1.8,6,1.8,5,3.3,6
2012/7/17 9:58,1.8,6,1.8,5,3.5,9
2012/7/17 9:59,1.8,7,1.8,5,2.7,8
2012/7/17 10:00,1.7,6,1.8,5,3.2,3
2012/7/17 10:01,1.7,6,1.7,5,3.2,4
2012/7/17 10:02,1.9,6,1.9,5,4.3,7
2012/7/17 10:03,2.1,6,2.1,6,4.1,6
2012/7/17 10:04,2.1,6,2.1,6,3.7,6
2012/7/17 10:05,2.2,6,2.2,6,3.1,7
2012/7/17 10:06,2.3,6,2.3,6,2.7,7
2012/7/17 10:07,2.1,6,2.3,6,1.6,8
2012/7/17 10:08,2,6,2.1,6,2.4,4
2012/7/17 10:09,1.9,6,2,6,1.1,2
2012/7/17 10:10,2,6,2,6,5.7,7
2012/7/17 10:11,2.1,6,2.1,6,4.5,7
2012/7/17 10:12,1.9,6,2.1,6,2.4,6
2012/7/17 10:13,1.8,7,1.8,6,3.6,8
2012/7/17 10:14,1.8,7,1.8,6,3.5,8
2012/7/17 10:15,1.6,7,1.8,6,2.4,7
2012/7/17 10:16,1.6,7,1.6,6,2.7,8
2012/7/17 10:17,1.8,7,1.8,6,2.4,8
2012/7/17 10:18,1.8,8,1.8,6,2.9,9
2012/7/17 10:19,2,8,2,6,3.9,8
2012/7/17 10:20,1.9,8,2,6,3.3,7
2012/7/17 10:21,2,8,2,6,4.7,8
2012/7/17 10:22,2.1,8,2.1,8,4.4,7
2012/7/17 10:23,2.2,8,2.2,8,3.8,8
2012/7/17 10:24,2.2,8,2.2,8,3.8,8
2012/7/17 10:25,2.3,8,2.3,8,3.9,8
2012/7/17 10:26,2.4,8,2.4,8,3.9,8
2012/7/17 10:27,2.4,8,2.5,8,2.7,7
2012/7/17 10:28,2.4,7,2.4,8,2.2,5
2012/7/17 10:29,2.2,7,2.4,8,1.4,8
2012/7/17 10:30,2.2,7,2.2,8,2.7,6
2012/7/17 10:31,2.1,7,2.2,8,2.7,5
2012/7/17 10:32,1.9,6,2.1,8,2.6,7
2012/7/17 10:33,1.8,6,1.9,8,3,7
2012/7/17 10:34,1.8,6,1.9,8,2.7,8
2012/7/17 10:35,1.7,6,1.8,8,2.4,9
2012/7/17 10:36,1.6,6,1.7,8,3.3,8
2012/7/17 10:37,1.5,6,1.6,8,0.9,6
2012/7/17 10:38,1.5,7,1.5,7,2.2,8
2012/7/17 10:39,1.6,7,1.6,7,2.7,6
2012/7/17 10:40,1.5,7,1.6,7,1.4,7
2012/7/17 10:41,1.4,7,1.5,7,1.5,7
2012/7/17 10:42,1.5,7,1.5,6,3.7,7
2012/7/17 10:43,1.5,7,1.5,6,2.6,7
2012/7/17 10:44,1.5,7,1.5,6,3,8
2012/7/17 10:45,1.5,7,1.5,6,3.3,6
2012/7/17 10:46,1.4,6,1.5,6,2.5,6
2012/7/17 10:47,1.5,6,1.5,7,1.8,6
2012/7/17 10:48,1.5,6,1.5,7,3,7
2012/7/17 10:49,1.5,7,1.5,7,3.3,9
2012/7/17 10:50,1.6,7,1.6,7,3.3,9
2012/7/17 10:51,1.7,7,1.7,7,3.2,8
2012/7/17 10:52,1.7,8,1.7,7,3.9,9
2012/7/17 10:53,1.7,8,1.8,8,4.7,7
2012/7/17 10:54,1.8,8,1.8,8,4.2,7
2012/7/17 10:55,1.8,8,1.8,8,4.2,7
2012/7/17 10:56,2,8,2,8,4.2,7
2012/7/17 10:57,2.1,8,2.1,8,3.6,9
2012/7/17 10:58,2.2,8,2.2,8,4.1,7
2012/7/17 10:59,2.3,8,2.3,8,4.5,7
2012/7/17 11:00,2.3,8,2.3,8,4.1,7
2012/7/17 11:01,2.3,8,2.3,8,2.4,7
2012/7/17 11:02,2.1,7,2.3,8,1.3,6
2012/7/17 11:03,1.9,7,2,8,2.1,7
2012/7/17 11:04,1.9,7,1.9,8,3.1,9
2012/7/17 11:05,1.8,8,1.9,8,1.9,9
2012/7/17 11:06,1.5,8,1.7,8,1.4,7
2012/7/17 11:07,1.4,8,1.5,8,2.4,8
2012/7/17 11:08,1.3,8,1.4,8,1.3,7
2012/7/17 11:09,1.1,8,1.3,8,1,6
2012/7/17 11:10,1,8,1.1,8,1.5,9
2012/7/17 11:11,0.9,8,0.9,7,2.7,6
2012/7/17 11:12,1,8,1,7,2.7,6
2012/7/17 11:13,1.1,8,1.1,7,1.9,5
2012/7/17 11:14,1.1,7,1.1,7,2.4,5
2012/7/17 11:15,1.1,7,1.1,8,2.9,7
2012/7/17 11:16,1.2,6,1.2,8,3.2,9
2012/7/17 11:17,1.3,6,1.3,8,3.1,5
2012/7/17 11:18,1.4,6,1.4,6,3.5,6
2012/7/17 11:19,1.5,6,1.5,6,2.5,6
2012/7/17 11:20,1.6,6,1.6,6,3.6,8
2012/7/17 11:21,1.7,7,1.7,6,4.5,8
2012/7/17 11:22,1.8,7,1.8,7,4.5,8
2012/7/17 11:23,1.8,7,1.8,7,2.2,7
2012/7/17 11:24,1.8,7,1.8,7,3.6,6
2012/7/17 11:25,1.8,7,1.9,7,3.6,8
2012/7/17 11:26,1.8,7,1.9,7,2.4,7
2012/7/17 11:27,1.8,7,1.8,7,2.1,7
2012/7/17 11:28,1.6,7,1.8,7,1.4,5
2012/7/17 11:29,1.6,6,1.6,7,1.6,2
2012/7/17 11:30,1.5,6,1.6,7,1.6,3
2012/7/17 11:31,1.4,6,1.5,7,1.4,4
2012/7/17 11:32,1.2,5,1.3,7,0.9,4
2012/7/17 11:33,1.2,6,1.2,7,2.5,8
2012/7/17 11:34,1.1,5,1.2,7,1.8,9
2012/7/17 11:35,1,6,1,7,2.1,8
2012/7/17 11:36,1,6,1,7,1.9,8
2012/7/17 11:37,0.9,6,1,7,2.1,9
2012/7/17 11:38,1,6,1,7,2.5,6
2012/7/17 11:39,1.2,6,1.2,6,3.9,5
2012/7/17 11:40,1.3,7,1.3,6,3.5,5
2012/7/17 11:41,1.4,6,1.4,6,2.2,5
2012/7/17 11:42,1.4,6,1.4,6,1.3,5
2012/7/17 11:43,1.5,6,1.5,6,3.1,5
2012/7/17 11:44,1.5,6,1.5,6,2.6,7
2012/7/17 11:45,1.6,6,1.6,6,3.7,6
2012/7/17 11:46,1.7,5,1.7,6,3.2,6
2012/7/17 11:47,1.9,5,1.9,5,4.7,5
2012/7/17 11:48,2.1,5,2.1,5,3.8,5
2012/7/17 11:49,2,5,2.1,5,2.6,5
2012/7/17 11:50,2,5,2,5,3,4